Regional Weather Roundup
Issued by NWS

Home | Current Version | Previous Version | Graphics & Text | Print | Product List | Glossary Off
Versions: 1 2 3 4 5 6 7 8 9 10 11 12 13 14 15 16 17 18 19 20 21 22 23 24 25 26 27 28 29 30 31 32 33 34 35 36 37 38 39 40 41 42 43 44 45 46 47 48 49 50

000
ASUS43 KMKX 272221
RWRWI

WISCONSIN REGIONAL WEATHER ROUNDUP
NATIONAL WEATHER SERVICE MILWAUKEE/SULLIVAN WI
400 PM CST MON FEB 27 2017

NOTE: "FAIR" INDICATES FEW OR NO CLOUDS BELOW 12,000 FEET WITH NO
SIGNIFICANT WEATHER AND/OR OBSTRUCTIONS TO VISIBILITY.

WIZ001-002-006>008-014>016-023>028-272300-
NORTHWEST WISCONSIN

CITY           SKY/WX    TMP DP  RH WIND       PRES   REMARKS
SUPERIOR ARPT  MOSUNNY   29  24  81 E9        29.93S WCI  21
ASHLAND        SUNNY     39  24  55 NE8       29.92F WCI  33
HAYWARD        SUNNY     42  16  34 S15G24    29.90F
SIREN          MOSUNNY   43  17  34 S10       29.89F
CUMBERLAND     MOSUNNY   37  19  48 S12       29.92F WCI  30
RICE LAKE      MOSUNNY   40  20  45 S9        29.94F WCI  33
CHETEK         MOSUNNY   39  20  45 S10G16    29.94F WCI  33
LADYSMITH      MOSUNNY   40  20  43 S7        29.96F
EAU CLAIRE     MOSUNNY   40  22  48 SE9       29.95F WCI  34
MENOMONIE      CLOUDY    40  22  48 SE3       29.94F
NEW RICHMOND   CLOUDY    41  17  38 S12G17    29.92F
OSCEOLA        MOSUNNY   42  18  37 S12G20    29.93F
$$

WIZ003>005-009-010-017-018-272300-
NORTH CENTRAL WISCONSIN

CITY           SKY/WX    TMP DP  RH WIND       PRES   REMARKS
MANITOWISH WTR SUNNY     38  18  43 SW12G18   29.92F WCI  31
ARBOR VITAE    SUNNY     42  16  36 SW14G20     N/A
WOODRUFF       SUNNY     42  16  36 SW14G20     N/A
RHINELANDER    CLOUDY    39  17  41 SW9       29.96S WCI  33
EAGLE RIVER    SUNNY     39  11  31 SW13      29.94S WCI  31
LAND O LAKES   SUNNY     41  15  34 SW8G16    29.95S
PHILLIPS       SUNNY     38  16  39 SW8G17    29.94S WCI  33
TOMAHAWK       CLOUDY    38  17  41 SW3       29.97S
MEDFORD        MOSUNNY   37  18  45 S6        29.96F WCI  33
MERRILL        NOT AVBL
$$

WIZ029-030-035-036-043>047-272300-
CENTRAL WISCONSIN

CITY           SKY/WX    TMP DP  RH WIND       PRES   REMARKS
WAUSAU         SUNNY     40  17  39 S13       29.98S WCI  32
MOSINEE        MOSUNNY   39  19  45 S9        30.00S WCI  33
MARSHFIELD     SUNNY     41  18  39 S7        29.97S
STEVENS POINT  SUNNY     40  19  42 S8        30.01R WCI  35
WAUPACA        SUNNY     43  27  54 SE8       30.03S
WAUTOMA        MOSUNNY   42  29  59 MISG      30.03S
WISC RAPIDS    SUNNY     43  20  39 SW9       30.00F
CAMP DOUGLAS   PTSUNNY   45  28  53 SE8       29.99F
$$

WIZ011>013-019>022-031-037>040-048>050-272300-
NORTHEAST WISCONSIN

CITY           SKY/WX    TMP DP  RH WIND       PRES   REMARKS
ANTIGO         CLOUDY    37  19  47 SW7       29.99S WCI  32
SHAWANO        SUNNY     42  23  46 S6        30.04S
OCONTO         SUNNY     38  26  62 S8        30.06S WCI  32
STURGEON BAY   CLOUDY    37  26  64 S13G22    30.07F WCI  29
GREEN BAY      MOSUNNY   39  30  70 S13       30.05F WCI  31
MANITOWOC      PTSUNNY   37  31  78 S12       30.08F WCI  29
APPLETON       PTSUNNY   41  25  52 S13       30.02F
CLINTONVILLE   SUNNY     41  23  48 S10       30.03S
OSHKOSH        MOSUNNY   41  29  62 S6        30.03F
$$

WIZ032>034-041-042-053>061-272300-
SOUTHWEST WISCONSIN

CITY           SKY/WX    TMP DP  RH WIND       PRES   REMARKS
LA CROSSE      SUNNY     47  30  51 S12       29.97F
SPARTA         SUNNY     46  29  52 S8        29.99F
VIROQUA        SUNNY     43  32  64 S7        29.97F
BOSCOBEL       SUNNY     50  32  50 SW10      30.00F
PRAIRIE DU CHI MOSUNNY   50  31  47 S8        29.99S
PLATTEVILLE    SUNNY     50  34  53 S13       30.00F
$$

WIZ056-057-062-063-064-067-068-272300-
SOUTH CENTRAL WISCONSIN

CITY           SKY/WX    TMP DP  RH WIND       PRES   REMARKS
REEDSBURG      MOSUNNY   45  32  60 SW5       29.99F
BARABOO/DELLS  SUNNY     44  30  57 SW9       30.00S
LONE ROCK      PTSUNNY   49  33  54 S8        30.00F
MINERAL POINT  SUNNY     50  34  53 S9        29.99F
MADISON        PTSUNNY   48  29  47 S13       30.01F
MIDDLETON      MOSUNNY   51  29  43 SW10      30.01F
WATERTOWN      SUNNY     47  32  54 S9        30.03F
MONROE         SUNNY     48  32  53 S9G16     30.00F
JANESVILLE     MOSUNNY   52  30  43 S12G17    30.04F
$$

WIZ051-052-058>065-066-070>072-272300-
SOUTHEAST WISCONSIN

CITY           SKY/WX    TMP DP  RH WIND       PRES   REMARKS
MILWAUKEE      PTSUNNY   46  34  62 SE12      30.07F
WAUKESHA       MOSUNNY   46  30  53 SW10G23   30.06F
MILWAUKEE/TIMM PTSUNNY   45  30  57 SE8       30.07F
RACINE         SUNNY     44  33  65 S13       30.10S
KENOSHA        MOSUNNY   48  34  58 SE12      30.08S
FOND DU LAC    CLOUDY    42  28  57 SE9       30.03F
SHEBOYGAN      CLOUDY    38  31  76 SE8       30.07F WCI  32
WEST BEND      CLOUDY    45  32  61 SE8       30.05S
JUNEAU         SUNNY     46  33  60 S13       30.04S
$$

LSZ147-162-272300-
LAKE SUPERIOR

STATION/POSITION TIME  TEMP    WIND        PRES    WAVE
                       AIR SEA DIR/SP/G            HT/PER
                 (UTC) (F)     (DEG/KT/KT) (MB)    (FT/S)
DEVILS ISLAND    2200   28      40/  9/ 10 1015.0F
PORT WING        2140   29      30/ 12/ 15 1013.9F
SAXON HARBOR     2130   30      40/  9/ 10 1013.9F
$$

LMZ867-665-643>646-272300-
LAKE MICHIGAN

STATION/POSITION TIME  TEMP    WIND        PRES    WAVE
                       AIR SEA DIR/SP/G            HT/PER
                 (UTC) (F)     (DEG/KT/KT) (MB)    (FT/S)
CHAMBERS ISLAND  2140   39     160/  7/ 13 1017.9S
NORTHPORT PIER   2140   38     170/  6/ 14 1018.6S
SISTER BAY       2120          210/ 25/ 29   N/A
KEWAUNEE LAKESHO 2148   36     180/ 14/ 17 1018.2F
SHEBOYGAN LAKESH 2200   36     170/ 10/ 11 1018.8F
PORT WASHINGTON  2130   39     180/  7/  9 1019.6S
MILWAUKEE LAKESH 2200   38     150/ 10/ 11   N/A
KENOSHA   LAKESH 2200   39     170/ 11/ 13 1019.0
$$

TC  - TEMPERATURE IN CELSIUS
VSB - VISIBILITY IN STATUTE MILES
WCI - WIND CHILL INDEX
HX  - HEAT INDEX




USA.gov is the U.S. government's official web portal to all federal, state and local government web resources and services.